Location: Newark
(60.5925°N, 45.5911°E)
Time: 04:18:19
(UTC+00:00)

ISS - Pass Details

Date: 25 September 2019
Orbit: 411 x 421 km, 51.6° (Epoch: 19 October)

Event Time Altitude Azimuth Distance (km) Brightness Sun altitude
Rises 15:24:53 0° 208° (SSW) 2,340 0.3 -5.1°
Reaches altitude 10° 15:28:24 10° 169° (S) 1,481 -1.2 -5.6°
Maximum altitude 15:29:12 11° 155° (SSE) 1,441 -1.4 -5.7°
Drops below altitude 10° 15:30:02 10° 140° (SE) 1,483 -1.4 -5.8°
Enters shadow 15:31:32 - 119° (ESE) 1,750 -1.2 -5.9°
